Погода в Павлодаре

Погода в Павлодаре : погода сейчас, прогноз погоды и архив. Всё, что Вы хотите узнать о погоде в Павлодаре!

Поиск расширенной информации на нашем сайте:

Полезная информация: http://vengriya-opt.com.ua/ купить нижнее белье оптом.
Эти новые рецепты закусок не оставят вас равнодушными

Другие новости

Новости СМИ2

Главная страница сайта

Новости сайта

02.10.2013

Напоминаем, что на нашем новом сайте вы можете получить высокодетализированные прогнозы погоды по пунктам России, СНГ и мира (включающие важные для авиации метеовеличины, такие как направление и скорость ветра, видимость, явления погоды, количество и форма облачности, нижняя и верхняя граница облачности), а также ознакомиться с разнообразными материалами по авиационной метеорологии и подборкой полезных ссылок на эту тему.

Сайт Метеоцентр.Азия посвящён разработке технологий оптимизации авиаметеорологического обслуживания, включая проектирование и перспективное создание нескольких автоматизированных авиаметеорологических систем:
- система выпуска высокодетальных прогностических карт явлений погоды для нижнего воздушного пространства по России и ближнему зарубежью;
- система верификации прогнозов TAF (выпускаемых синоптиками официальных АМСГ РФ и ближнего зарубежья) и AUTOTAF (выпускаемых сайтом Метеоцентр.Азия) - выявление ошибок, онлайн-сопоставление с фактической погодой METAR, автоматическое внесение коррективов в прогнозы при резком отклонении фактической погоды от прогноза, подсчёт оправдываемости прогнозов по элементам и в целом;
- система обработки, анализа и отображения авиаметеорологической информации для применения провайдерами метеорологической информации.

Рекомендуем: Заливка фундамента в Калуге КСК строительство домов в Калуге.

Погода в Павлодаре - сегодня

Время (UTC), дата Ветер
(°,м/с) 
Видим.   Явления Облачность Т
(°С)
Тd
(°С)
f(%) Тe
(°С)
Pmin
(гПа)
dP
(гПа)
Po
(мм)
O2
(г/м3)
Тmin Tmax R s Состояние
почвы
06 24.04.17 270 (З) 20000 м    9/8 600 м кучево-дожд., средняя 
[Cb cap|Ac trans]
+12.3 +1.2 47 +11  1019.7  1.9  754  290  +3.5         
09 24.04.17 310 (СЗ) 20000 м    10/8 600 м кучево-дожд., средняя 
[Cb cap|Ac und]
+11 +0.5 48 +9  1021.6  1.9  755  292           
12 24.04.17 310 (СЗ) 20000 м    9/8 600 м кучево-дожд., средняя 
[Cb cap|Ac trans]
+10.7 +1.3 52 +10  1022.8  1.1  756  293           
15 24.04.17 310 (СЗ) 20000 м    1/0 верхняя 
[Ci fib]
+7.6 +2.8 72 +9  1024.4  1.4  757  296    +12.7       
18 24.04.17 тихо ()   20000 м    ясно 
+1.8 +0.2 89 +2  1025.9  1.2  758  303    +12.7       
21 24.04.17 130 (ЮВ) 20000 м    3/0 верхняя 
[Ci fib]
+1.3 -0.1 90 +2  1026.8  0.8  759  304           
00 25.04.17 130 (ЮВ) 20000 м    1/0 верхняя 
[Ci fib]
+1.1 +0.6 96 +2  1027.2  0.5  759  305           
03 25.04.17 100 (В) 20000 м    ясно 
+11 +2.9 57 +11  1027.3  0.5  759  294           
06 25.04.17 120 (ЮВ) 20000 м    ясно 
+15.4 +1.7 39 +16  1026.6  -0.4  759  289  +0.4         
09 25.04.17 150 (ЮВ) 20000 м    ясно 
+17.2 +3.6 40 +18  1024.8  -1.7  758  287           
12 25.04.17 150 (ЮВ) 20000 м    5/0 верхняя 
[Ci fib]
+18.7 +1.6 32 +19  1023.8  -0.9  757  285           
15 25.04.17 140 (ЮВ) 20000 м    3/0 верхняя 
[Ci fib]
+12 +3.9 58 +12  1023.3  -0.8  757  291    +19.8       
18 25.04.17 150 (ЮВ) 20000 м    ясно 
+10.8 +2.9 58 +11  1023.1  -0.3  756  293    +19.8       
21 25.04.17 130 (ЮВ) 20000 м    ясно 
+7.7 +1.5 65 +7  1022.4  -0.8  756  296           
00 26.04.17 140 (ЮВ) 20000 м    4/0 верхняя 
[Ci fib]
+5 +1.5 78 +6  1021.4  -1.2  755  298           
03 26.04.17 150 (ЮВ) 20000 м    3/0 верхняя 
[Ci fib]
+13.3 +2.6 48 +13  1020.2  -0.7  754  289           
06 26.04.17 190 (Ю) 20000 м    3/0 верхняя 
[Ci fib]
+19.2 +1.5 31 +20  1018.1  -1.7  753  283  +4.4         
09 26.04.17 170 (Ю) 20000 м    4/0 верхняя 
[Ci fib]
+23.8 +0.3 21 +24  1016.4  -1.5  752  279           
12 26.04.17 160 (Ю) 20000 м    3/0 верхняя 
[Ci fib]
+25.8 +0.7 19 +26  1015.1  -1.2  751  276           
15 26.04.17 160 (Ю) 20000 м    ясно 
+17 +4.8 44 +18  1014.8  -0.8  750  284    +26.8       
18 26.04.17 160 (Ю) 20000 м    ясно 
+14 +3.9 51 +15  1014  -0.9  750  287    +26.8       
21 26.04.17 160 (Ю) 20000 м    3/0 верхняя 
[Ci fib]
+11.2 +5.6 68 +12  1011.5  -2.6  748  289           
00 27.04.17 160 (Ю) 20000 м    6/0 верхняя 
[Ci fib]
+8.8 +5.3 79 +10  1010.6  -1  747  291           
03 27.04.17 280 (З) 20000 м    6/0 верхняя 
[Ci fib]
+15.8 +8.1 60 +16  1011.1  0.9  748  283           
06 27.04.17 310 (СЗ) 20000 м    3/0 верхняя 
[Ci fib]
+22.3 +10.3 47 +24  1013  2.2  749  277  +8.4         
Время (UTC), дата Ветер
(°,м/с) 
Видим.   Явления Облачность Т
(°С)
Тd
(°С)
f(%) Тe
(°С)
Pmin
(гПа)
dP
(гПа)
Po
(мм)
O2
(г/м3)
Тmin Tmax R s Состояние
почвы

Для получения пояснительной информации подведите курсор к названию столбца.

ПОГОДА в Павлодаре - архив

Всё, что Вы хотите узнать о погоде в Павлодаре - удобно и подробно!

Выберите нужную дату (начиная с 1 января 2015* года) и нажмите кнопку "Найти".
Будут отображены архивные сводки погоды по пункту Павлодар, начиная с указанной даты.


Отображать данные в формате CSV (для использования в таблицах Excel)


Внимание! Наш архив погоды предназначен исключительно для личного некоммерческого использования в познавательных целях. Если Вам необходимы официальные справки о состоянии погоды (для производственных, юридических, коммерческих и т.п. целей), обращайтесь в органы Росгидромета.

*Примечание: данная дата относится к архиву по метеостанциям СССР (Россия, СНГ, Балтия).
Архив по метеостанциям Зарубежной Европы и Азии (кроме Китая) хранится 10 дней, по другим регионам земного шара (Китай, Африка, Америка, Австралия, Океания) - 1 день.

Павлодар - район местоположения метеостанции


Название, широта, долгота, высота метеостанции:
Павлодар 52.1°ш. 77.1°д. 125 м над ур. моря [Казахстан]

Дополнительная информация

В oтличие oт бoльшинства пoгoдных сайтoв мы публикуем пoдрoбную метеoинфoрмацию в детальнoм прoфессиoнальнoм фoрмате.

Характеристики температуры и влажнoсти вoздуха измеряются на высoте 2 м в тени вдали oт зданий и деревьев.
Скoрoсть ветра измеряется на высoте 10 м (на урoвне рoста челoвека скoрoсть ветра ниже в 1.5-2 раза). Если метеoстанция нахoдится в гoрoде или в лесу, тo скoрoсть ветра занижена на 2-4 м/с пo сравнению с oткрытым местoм. Скoрoсть ветра над акватoриями крупных рек и oзёр, а также на вершинах хoлмoв на 2-5 м/с выше, чем в oбычных услoвиях.
Атмoсфернoе давление в разных тoчках местнoсти мoжет значительнo oтличаться oт давления на метеoстанции, в зависимoсти oт услoвий рельефа (при пoдъёме на 10 м давление пoнижается примернo на 1 мм рт.ст.).